Location: Poughquag
(41.6090°N, 73.6820°W)
Time: 06:29:28
(UTC-05:00)

Altair - Pass Details

Date: 04 December 2023
Orbit: 1501 x 1682 km, 47.2° (Epoch: 02 March)

Event Time Altitude Azimuth Distance (km) Brightness Sun altitude
Rises 08:23:18 0° 235° (SW) 4,838 10.0 10.9°
Reaches altitude 10° 08:26:27 10° 234° (SW) 3,830 9.5 11.4°
Maximum altitude 08:36:10 79° 149° (SSE) 1,593 8.0 12.7°
Drops below altitude 10° 08:45:32 10° 65° (ENE) 3,701 9.8 13.8°
Sets 08:48:32 0° 64° (ENE) 4,669 10.3 14.2°
